This is the latest recevied weather packets stored in our database for station/object K7KAZ. If no packets are shown the sender has not sent any weather packets the latest 10 day(s).
| Time | Temp. | Humidity | Pressure | Rain* | Wind** | Luminosity | Snow |
|---|---|---|---|---|---|---|---|
| 1777412582 | 27.22° C | 18% | 1016.8 hPa | 0 mm | - | 635 W/m² | - |
| 1777412278 | 27.22° C | 17% | 1017.2 hPa | 0 mm | - | 640 W/m² | - |
| 1777411975 | 26.11° C | 17% | 1017.3 hPa | 0 mm | - | 659 W/m² | - |
| 1777411674 | 26.11° C | 18% | 1017.3 hPa | 0 mm | - | 672 W/m² | - |
| 1777411369 | 26.67° C | 18% | 1017.3 hPa | 0 mm | - | 697 W/m² | - |
| 1777411069 | 27.22° C | 17% | 1017.6 hPa | 0 mm | - | 712 W/m² | - |
| 1777410764 | 26.67° C | 18% | 1017.6 hPa | 0 mm | - | 710 W/m² | - |
| 1777410462 | 26.11° C | 18% | 1017.5 hPa | 0 mm | - | 570 W/m² | - |
| 1777410162 | 27.22° C | 18% | 1017.6 hPa | 0 mm | - | 697 W/m² | - |
| 1777409856 | 26.11° C | 17% | 1017.6 hPa | 0 mm | - | 641 W/m² | - |
| 1777409547 | 26.11° C | 19% | 1018 hPa | 0 mm | - | 643 W/m² | - |
| 1777409243 | 26.11° C | 19% | 1017.9 hPa | 0 mm | - | 700 W/m² | - |
| 1777408939 | 25.56° C | 18% | 1018 hPa | 0 mm | - | 773 W/m² | - |
| 1777408636 | 26.11° C | 17% | 1017.9 hPa | 0 mm | - | 668 W/m² | - |
| 1777408332 | 26.11° C | 19% | 1017.7 hPa | 0 mm | - | 624 W/m² | - |
| 1777408031 | 26.11° C | 18% | 1017.9 hPa | 0 mm | - | 733 W/m² | - |
| 1777407727 | 26.11° C | 19% | 1018 hPa | 0 mm | - | 681 W/m² | - |
| 1777407422 | 25.56° C | 20% | 1017.7 hPa | 0 mm | - | 690 W/m² | - |
| 1777407117 | 26.11° C | 20% | 1018.1 hPa | 0 mm | - | 725 W/m² | - |
| 1777406813 | 26.11° C | 20% | 1018.1 hPa | 0 mm | - | 525 W/m² | - |
| 1777406509 | 25.56° C | 21% | 1018.4 hPa | 0 mm | - | 736 W/m² | - |
| 1777406204 | 25.56° C | 21% | 1018.5 hPa | 0 mm | - | 642 W/m² | - |
| 1777405904 | 25.56° C | 21% | 1018.3 hPa | 0 mm | - | 765 W/m² | - |
| 1777405600 | 25° C | 21% | 1018.6 hPa | 0 mm | - | 745 W/m² | - |
| 1777405298 | 25° C | 21% | 1018.5 hPa | 0 mm | - | 751 W/m² | - |
* Rain latest hour (hover to see other rain measurements)
** Current wind speed in m/s (hover to see current wind gust speed)